STARLINK-35554, 66239

Orbit data source: Space-Track

STARLINK-35554, 66239 is a payload satellite owned by SpaceX/Seattle (US) in LEO that was launched on Wed, 29 Oct 2025 UTC via an FALCON 9 launch vehicle from the Air Force Eastern Test Range (AFETR). Payload-class satellites include a variety of spacecraft equipped with specific instruments for various scientific and technological missions. These include communications satellites like Starlink; space stations such as the ISS; scientific satellites like the Hubble; Earth observation satellites from companies like Planet Labs, Umbra, and HawkEye 360; GPS; miniature CubeSats for education and research; and military/defense satellites.

Loading next visibility...
Identifier
66239, 2025-245F
Orbit
LEO
Country
Flag of USUS
Related business
Manufacturer
SpaceX/Seattle
Mission
Operational Commercial Communications
Bus & Motor
STARLINK V2MO, Unknown motor
Mass
575 kg wet, ~530 kg dry
Launch date (UTC)
2025-10-29 (8 months ago)
Launch vehicle
FALCON 9
Launch site
Air Force Eastern Test Range (AFETR)
Object type
Payload
Rocket body
Debris
Shape & HBR
Box + 2 Pan, 17.7 m
Radar Cross Section
36.964 m², Large (>1 m²)

Expand to show TLE details & history
Last TLE update: 15 hours ago

TLE from 15 hours ago
0 STARLINK-35554
1 66239U 25245F   26171.27176757  .00010121  00000-0  33732-3 0  9999
2 66239  53.1579 167.3197 0001188  89.3111 270.8027 15.31714914 36802
Epoch: 2026-06-20T06:31Z
TLE epoch observation values (Epoch: 2026-06-20T06:31:20.718Z)
Latitude
0.00004°
Longitude
160.99462°
Altitude
471.584 km
Speed
7.631 km/s
True Right ascension
11h 09m 16s
True Declination
0° 00' 00"
Sunlit
Object was in daylight at epoch
Visualization orbit readout
Latitude
Unknown
Longitude
Unknown
Altitude
Unknown
Speed
Unknown
Apparent Right ascension
Unknown
Apparent Declination
Unknown
Sunlit
N/A
Visualization observer readout
Local Sidereal Time
08:32:28
Azimuth
Unknown
Elevation
Unknown
Doppler factor
Unknown
Orbital elements
Apogee altitude
471.766 km
Perigee altitude
470.139 km
Semi-major axis
6,849.089 km
Eccentricity
0.00012
Inclination
53.1579°
RAAN
167.3197°
Arg. of periapsis
89.3111°
True anomaly
270.78909°
Mean anomaly
270.8027°
Eccentric anomaly
270.79589°
Mean motion
3.82908 °/min
Orbital period
94.02 mins
BSTAR
0.00033732
Loading maneuver chart data...
Computing Atmospheric mass density...
Loading historical data...
Loading historical data...
Loading historical data...
Loading historical data...
Loading historical data...
Loading historical data...
Loading historical data...

Documentation

Showing up to 5 results
|